Temperature
24 25 26 26 26 26 25 23 22 22 22 22 22 22 22 23 23 23 22 22 22 22 21 21 20 20 20 19 19 18 18 18 17 17 17 17 17 16 16 16 16 16 15 15
24 25 26 26 26 26 25 25 23 23 22 22 22 23 22 22 22 22 22 22 22 21 21 21 21 20 20 19 19 18 18 17 17 17 17 17 17 16 16 16 16 15 15 15
22 24 24 24 25 25 24 24 23 22 22 22 22 22 22 22 22 22 21 21 21 21 21 21 21 20 20 19 19 18 18 17 17 17 17 17 16 16 16 16 16 15 15 15
20 23 23 23 24 25 24 23 23 22 22 22 22 22 22 23 22 22 22 21 21 21 21 21 21 20 20 19 19 18 18 17 17 17 17 16 16 16 16 16 15 15 15 15
19 21 22 24 24 24 23 22 22 22 22 22 22 21 21 22 23 23 22 22 21 21 21 20 20 20 19 19 18 18 18 17 17 17 17 16 16 16 16 15 15 15 15 15
20 22 22 23 24 25 23 21 22 22 21 21 22 19 19 22 22 22 22 22 21 21 20 20 20 19 19 18 18 18 17 17 17 16 16 16 16 16 15 15 15 15 14 14
20 21 21 22 24 24 22 21 22 22 22 22 21 21 22 22 22 22 22 21 21 20 20 20 19 19 18 18 18 17 17 17 17 16 16 16 16 15 15 15 15 14 14 14
18 20 21 22 23 22 21 22 22 22 23 22 22 22 22 22 21 21 21 21 20 20 20 19 19 18 18 18 18 17 17 17 16 16 16 16 15 15 15 15 14 14 14 14
18 19 20 22 22 23 23 22 22 22 22 22 22 21 21 21 21 21 21 20 20 20 19 19 19 18 18 18 17 17 17 17 16 16 16 16 15 15 15 14 14 14 14 14
18 19 20 21 22 23 23 23 23 22 22 22 21 21 20 20 20 20 20 19 19 19 19 18 18 18 18 17 17 17 17 16 16 16 16 15 15 15 15 14 14 14 14 13
17 18 19 21 21 22 22 22 22 22 22 21 21 20 20 19 19 19 19 19 19 19 18 18 18 18 17 17 16 16 16 16 16 16 15 15 15 15 14 14 14 14 14 13
17 18 18 20 21 21 22 22 21 21 21 21 20 20 19 19 19 19 19 18 18 18 18 17 17 17 17 16 16 16 16 16 15 15 15 15 15 14 14 14 14 13 13 13
20 20 20 20 20 21 21 21 21 21 20 20 20 19 19 19 19 18 18 18 18 17 17 17 16 16 16 16 16 15 15 15 15 15 15 14 14 14 14 14 13 13 13 13
20 20 19 20 20 20 20 20 20 20 20 19 19 19 19 18 18 18 18 18 17 17 17 16 16 16 16 15 15 15 15 15 15 15 14 14 14 14 14 14 13 13 13 13
19 19 19 19 19 19 20 20 19 19 19 19 18 18 18 18 17 17 17 17 17 17 16 16 16 16 15 15 15 15 15 15 14 14 14 14 13 13 13 13 13 13 13 13
19 19 19 19 19 19 19 19 19 18 18 18 18 18 17 17 17 17 17 16 16 16 16 16 15 15 15 15 15 15 14 14 14 14 13 13 13 13 13 13 13 13 13 13
18 18 18 18 18 18 18 18 18 18 18 18 18 18 17 17 17 16 16 16 16 16 16 15 15 15 15 14 14 14 14 14 14 13 13 13 13 12 12 12 12 12 12 12
18 18 18 18 18 18 18 18 18 18 18 17 17 17 17 17 16 16 16 16 16 15 15 15 15 15 15 14 14 14 14 14 13 13 13 13 13 12 12 12 12 12 12 12
18 18 18 18 18 18 18 17 17 17 17 17 17 16 16 16 16 16 16 15 15 15 15 15 15 14 14 14 14 14 14 13 13 13 13 12 12 12 12 12 12 12 12 12
17 17 17 17 17 17 17 17 17 16 16 16 16 16 16 16 15 15 15 15 15 15 14 14 14 14 14 14 14 13 13 13 13 13 12 12 12 12 12 12 12 12 11 11
16 16 16 16 16 16 16 16 16 16 16 16 16 16 15 15 15 15 15 14 14 14 14 14 14 13 13 13 13 13 13 13 12 12 12 12 12 12 12 11 11 11 11 11
15 15 16 16 16 16 16 16 16 16 15 15 15 15 15 15 15 14 14 14 14 14 14 13 13 13 13 13 13 13 12 12 12 12 12 12 12 12 11 11 11 11 11 11
15 15 15 15 15 15 15 15 15 15 15 15 15 15 15 14 14 14 14 14 13 13 13 13 13 13 13 13 12 12 12 12 12 12 12 12 11 11 11 11 10 10 10 10
14 14 14 14 15 15 14 14 15 15 15 15 14 14 14 14 14 14 14 13 13 13 13 13 13 12 12 12 12 12 12 12 12 11 11 11 11 11 11 10 10 10 10 10
14 14 14 14 14 14 14 14 14 14 14 14 14 14 14 14 14 13 13 13 13 13 13 12 12 12 12 12 12 12 12 11 11 11 11 11 11 11 10 10 10 10 10 10
13 13 13 13 13 13 13 13 13 13 13 13 13 13 13 13 13 13 13 13 13 12 12 12 12 12 12 11 11 11 11 11 11 11 11 10 10 10 10 10 10 9 9 9
13 13 13 13 13 13 13 13 13 13 13 13 13 13 13 13 13 12 12 12 12 12 12 11 11 11 11 11 11 11 10 10 10 10 10 10 10 10 9 9 9 9 9 9
Wind_Speed
4 4 2 2 2 1 3 6 7 7 8 9 10 10 9 7 8 8 8 8 9 9 7 7 7 6 6 6 5 6 5 4 4 3 2 2 2 2 2 2 2 1 2 1
2 2 2 1 0 2 2 3 5 5 3 6 6 7 8 8 9 8 8 9 9 9 8 8 7 6 6 6 6 6 6 5 4 3 2 2 2 2 2 2 2 2 2 2
2 3 5 4 4 2 3 3 6 5 6 5 7 9 10 10 10 8 7 7 9 9 9 8 8 7 6 5 4 5 5 5 4 4 3 3 3 2 2 3 3 2 2 2
2 3 2 7 3 5 6 2 3 4 5 7 9 8 8 9 11 10 10 9 8 8 8 7 6 6 5 5 5 5 5 4 4 4 3 3 2 3 3 2 3 3 2 3
4 3 4 5 2 4 6 1 1 5 6 6 8 7 3 4 9 11 10 8 7 7 7 6 6 6 6 5 5 5 5 4 4 4 4 3 3 3 3 3 2 2 2 2
4 4 5 6 4 3 8 1 2 5 7 8 7 4 4 6 8 9 8 7 6 6 6 6 5 6 7 6 5 4 5 4 3 4 3 3 3 3 3 3 3 3 2 3
3 3 4 5 3 4 5 6 4 5 7 6 5 6 6 6 7 8 7 7 8 8 6 5 5 7 7 5 5 4 4 4 3 3 3 3 2 2 2 2 2 2 2 2
3 3 5 4 2 4 6 4 5 5 6 5 4 5 6 6 6 7 6 7 8 8 6 4 5 7 6 5 4 3 4 3 3 2 2 2 2 2 2 2 2 2 2 1
5 5 5 2 3 4 6 6 4 5 4 6 7 6 6 5 6 6 7 6 6 7 6 4 5 6 6 5 4 4 4 3 2 2 1 2 3 2 2 2 2 2 2 2
2 1 1 3 4 3 6 6 6 6 7 7 7 6 6 6 5 5 6 5 5 6 6 4 4 4 4 4 4 5 4 3 2 2 1 1 2 2 2 3 3 3 3 3
1 1 3 5 4 3 4 6 7 6 7 8 9 7 7 6 5 5 5 4 5 6 4 3 3 3 2 3 4 4 3 2 2 2 2 1 1 2 3 4 5 5 5 4
4 4 3 2 0 3 5 5 6 6 5 6 7 8 7 6 5 5 5 4 5 5 4 3 2 2 2 3 4 4 2 2 2 2 1 2 1 1 3 4 5 6 7 6
3 2 2 2 1 3 4 4 4 6 7 6 5 6 6 4 4 4 5 5 5 5 4 4 4 2 2 2 3 4 4 3 2 2 2 2 2 2 2 3 3 5 6 7
1 2 1 1 0 1 4 5 6 7 7 6 6 6 6 4 3 3 4 4 5 5 4 4 4 3 3 3 3 3 3 3 2 2 2 2 2 3 3 3 2 3 4 5
0 1 3 2 2 2 3 5 7 6 5 5 6 6 6 5 3 3 2 2 4 4 4 3 3 3 3 3 3 3 3 2 2 2 2 2 2 2 2 3 3 3 2 3
1 2 2 3 3 2 4 5 6 5 5 6 6 5 5 5 4 3 3 3 4 4 3 3 3 4 4 3 3 3 3 3 3 2 2 1 1 1 1 2 2 2 3 3
4 3 2 2 2 3 3 5 7 6 5 5 5 5 4 4 3 2 2 2 3 3 3 3 3 3 3 4 4 3 3 2 2 2 2 2 2 2 2 2 2 3 3 4
5 6 6 5 4 3 3 4 5 6 6 5 5 4 4 4 3 2 2 2 1 0 1 3 3 2 2 3 3 3 3 3 2 2 2 2 2 2 2 2 2 3 2 2
3 4 4 4 5 5 5 5 5 4 4 4 5 5 4 3 2 1 1 2 2 1 3 3 2 2 2 2 2 2 3 2 2 2 2 2 2 1 2 2 2 2 2 2
5 4 4 5 5 5 4 4 4 4 3 4 4 4 3 2 2 1 1 1 2 3 3 2 1 1 1 1 1 2 3 3 3 2 2 2 2 2 2 2 1 1 1 2
4 3 4 4 4 4 4 4 4 4 3 3 4 4 4 2 2 2 2 1 3 3 2 1 1 1 1 0 0 1 1 2 2 2 3 2 2 2 2 2 2 2 2 2
2 2 3 3 3 2 2 3 4 3 3 3 3 3 3 2 1 1 1 3 3 2 1 1 1 1 1 1 1 1 1 1 1 2 2 2 2 2 2 2 2 2 2 2
1 2 2 2 1 1 0 1 3 3 3 3 3 3 3 3 3 2 3 3 1 1 1 1 1 1 1 1 1 1 1 1 1 1 2 2 2 1 1 2 2 2 2 2
1 1 1 0 2 2 1 1 2 2 3 3 3 4 4 2 1 2 2 2 2 2 1 2 2 1 1 1 1 1 1 1 1 1 1 2 2 2 1 2 2 2 2 2
1 0 1 2 1 0 1 0 1 0 1 1 1 2 2 3 3 2 2 2 2 2 1 1 2 2 1 1 0 0 0 1 1 1 1 1 1 1 1 1 1 2 2 1
1 1 1 1 1 1 1 1 1 1 1 1 1 1 1 1 2 2 1 2 2 2 1 0 1 1 1 1 1 1 1 1 1 1 1 1 1 1 1 1 1 1 1 1
1 1 1 1 2 1 0 1 1 2 2 2 2 2 2 2 2 2 2 2 2 2 2 1 1 1 1 1 1 1 1 1 0 0 1 1 1 1 1 1 1 1 1 1
Wind_Direction
207 213 175 207 232 140 139 170 174 198 191 208 198 185 172 156 149 151 154 148 152 154 153 152 153 160 165 171 173 168 163 171 187 185 171 160 162 172 168 159 162 155 125 118
358 16 55 34 315 87 108 134 149 151 213 221 190 152 143 145 147 154 159 157 154 151 152 156 160 166 168 177 178 167 167 179 180 163 156 167 190 185 164 167 171 144 147 138
277 321 37 325 262 175 147 171 162 187 213 174 146 151 161 161 156 155 154 153 157 162 166 169 173 172 175 174 163 156 162 170 170 168 171 192 197 188 185 185 169 160 173 158
141 55 237 248 256 135 128 130 146 154 166 160 155 158 162 159 152 155 161 162 169 168 167 169 167 162 157 153 149 146 152 165 172 171 184 202 193 189 193 182 176 180 182 178
131 168 259 287 299 136 128 79 128 136 137 130 119 90 87 168 155 160 166 166 169 167 162 158 157 154 143 140 141 146 164 179 184 177 181 190 195 208 205 189 188 190 192 181
131 158 219 249 273 152 105 78 268 147 148 145 123 125 209 193 162 155 157 156 150 139 131 146 158 144 137 139 144 165 180 182 182 181 175 187 203 212 205 187 191 185 200 200
159 199 244 264 262 97 128 209 211 156 149 147 163 185 191 171 159 156 150 139 134 128 134 156 153 140 141 147 170 184 172 163 166 179 182 180 192 204 191 182 178 188 202 219
152 175 243 292 75 143 192 180 156 145 149 146 140 132 139 143 145 141 133 133 133 133 140 147 145 143 149 170 186 162 151 156 170 183 191 175 171 196 185 173 183 207 198 228
185 209 232 233 160 170 147 137 146 142 137 127 125 133 138 142 141 138 138 144 141 141 140 143 147 149 162 181 162 145 139 158 179 186 193 177 179 193 198 189 190 211 205 217
70 339 34 71 76 89 122 132 137 132 125 120 120 120 127 130 129 133 140 149 147 136 137 150 155 149 163 164 150 141 150 170 183 179 196 175 180 186 191 204 201 203 207 212
56 309 25 24 52 78 91 103 103 106 114 127 125 119 121 132 143 146 146 153 146 143 150 165 150 134 148 148 139 141 159 179 187 196 198 192 205 210 209 221 208 200 210 207
214 226 177 224 349 80 94 108 122 116 105 114 124 129 129 142 158 156 145 138 138 141 144 162 169 157 161 164 152 149 161 194 213 211 205 190 200 275 271 241 236 218 215 209
203 225 176 175 91 93 107 113 118 122 125 122 120 126 131 138 151 144 138 139 148 152 148 151 163 176 191 196 162 161 177 202 215 213 207 201 205 208 261 298 284 262 253 238
154 101 92 79 113 94 106 110 110 108 108 121 129 123 123 119 126 140 156 165 154 143 140 141 149 177 213 202 167 174 184 198 195 205 207 209 219 220 213 222 263 288 279 258
280 168 194 164 103 94 102 106 108 107 108 107 120 126 128 129 145 168 183 154 133 127 137 148 157 196 217 205 192 199 204 213 208 198 200 211 222 229 229 227 236 254 279 291
143 89 105 118 125 121 108 121 130 137 138 132 131 138 144 150 155 163 171 148 133 150 172 184 207 213 201 198 202 210 223 225 204 198 209 225 226 230 255 252 253 249 252 251
146 163 159 163 156 139 127 137 146 146 143 143 146 140 125 119 118 134 162 176 173 188 198 205 221 217 199 203 205 211 215 220 206 201 213 222 225 222 226 222 238 248 251 243
175 177 169 168 164 148 133 130 136 140 151 156 140 123 121 126 137 168 182 157 121 87 244 217 207 193 197 202 199 203 201 203 203 208 221 231 228 217 224 230 233 239 262 272
124 142 140 138 148 146 141 141 138 136 138 136 129 132 141 145 155 159 133 125 135 220 264 255 223 191 216 235 204 196 195 195 202 202 203 213 218 225 226 231 249 254 242 238
73 86 104 105 110 119 127 133 130 126 137 138 136 134 133 148 147 130 115 173 224 232 247 242 216 236 237 250 212 197 197 197 192 191 197 206 219 235 241 239 243 254 256 240
81 85 94 96 98 111 131 140 141 153 165 156 153 157 167 177 168 150 131 273 288 284 283 231 182 238 215 242 204 218 218 194 194 202 208 213 223 235 243 244 244 249 249 245
103 106 99 96 94 100 147 153 150 151 150 152 150 145 146 164 181 217 224 224 250 275 282 234 223 224 211 155 132 194 217 202 200 201 200 198 203 217 238 251 253 266 265 244
113 118 113 121 127 139 138 164 170 160 162 166 169 175 187 201 195 194 253 257 231 235 198 220 246 221 163 153 181 204 205 184 169 169 181 183 191 201 235 263 264 267 265 257
94 123 181 203 89 78 41 271 226 187 179 178 184 188 184 188 229 229 214 212 207 202 207 224 205 175 133 130 156 165 182 197 192 192 198 195 196 199 215 244 263 269 259 257
77 106 94 87 85 150 242 284 48 71 167 190 207 199 185 176 186 212 210 201 190 166 196 222 178 163 150 164 182 195 191 208 196 158 151 163 184 220 237 260 262 256 250 233
44 97 113 174 198 216 214 160 163 213 202 210 244 241 218 192 179 173 171 174 159 140 134 153 159 143 140 143 127 106 93 67 71 86 125 141 116 69 40 21 310 287 281 285
24 36 38 6 334 317 252 182 194 201 190 184 207 227 199 170 147 144 138 138 132 128 128 140 155 150 149 141 128 133 131 120 97 116 132 118 109 113 104 76 52 10 346 333
Height
1479 1475 1475 1477 1478 1477 1484 1491 1500 1498 1496 1491 1486 1486 1487 1489 1492 1494 1497 1499 1501 1503 1504 1506 1507 1509 1511 1512 1512 1512 1513 1513 1513 1512 1512 1512 1512 1512 1511 1511 1511 1510 1510 1509
1481 1475 1474 1477 1475 1476 1479 1481 1487 1490 1491 1482 1481 1484 1486 1488 1491 1493 1495 1497 1499 1501 1503 1505 1506 1508 1509 1509 1510 1510 1511 1511 1511 1511 1511 1511 1511 1510 1509 1509 1509 1509 1508 1508
1492 1481 1480 1489 1478 1476 1479 1479 1482 1489 1485 1479 1482 1483 1485 1486 1488 1492 1494 1497 1498 1500 1501 1503 1504 1505 1507 1507 1508 1509 1509 1509 1510 1510 1510 1509 1509 1509 1508 1507 1507 1506 1506 1506
1495 1491 1503 1487 1469 1469 1475 1478 1476 1477 1478 1478 1479 1481 1483 1485 1487 1490 1493 1495 1497 1498 1500 1501 1502 1504 1505 1506 1507 1507 1508 1508 1508 1508 1508 1508 1507 1507 1506 1506 1505 1505 1504 1504
1499 1502 1495 1479 1470 1470 1476 1482 1476 1477 1478 1479 1479 1483 1485 1485 1486 1488 1490 1493 1495 1497 1498 1500 1501 1502 1504 1504 1505 1505 1506 1506 1506 1506 1505 1505 1505 1505 1504 1504 1503 1503 1503 1503
1494 1498 1501 1483 1468 1465 1471 1487 1478 1476 1478 1478 1479 1488 1488 1485 1485 1487 1489 1491 1493 1495 1496 1498 1500 1501 1502 1502 1502 1503 1503 1503 1504 1504 1503 1503 1503 1503 1503 1502 1501 1501 1501 1501
1491 1494 1487 1472 1466 1465 1486 1487 1477 1476 1476 1477 1478 1480 1482 1483 1484 1486 1488 1489 1491 1493 1494 1496 1498 1499 1499 1500 1500 1501 1502 1502 1502 1502 1502 1502 1501 1501 1501 1500 1500 1499 1499 1499
1491 1495 1491 1468 1466 1472 1475 1471 1473 1474 1475 1476 1477 1479 1481 1482 1483 1485 1486 1487 1489 1491 1493 1495 1496 1497 1497 1497 1498 1499 1499 1499 1500 1500 1500 1500 1500 1499 1499 1498 1498 1497 1497 1497
1482 1482 1471 1467 1466 1467 1468 1470 1472 1473 1474 1475 1477 1478 1480 1482 1483 1484 1485 1487 1488 1489 1491 1492 1494 1495 1495 1496 1496 1497 1497 1497 1498 1498 1498 1498 1498 1497 1497 1496 1496 1495 1495 1494
1475 1473 1469 1468 1467 1467 1468 1469 1471 1472 1473 1475 1476 1478 1479 1481 1483 1484 1485 1487 1487 1488 1489 1490 1491 1492 1493 1494 1494 1495 1495 1495 1495 1495 1495 1495 1496 1495 1495 1494 1493 1493 1493 1492
1476 1473 1470 1469 1468 1468 1468 1469 1471 1472 1473 1474 1475 1477 1478 1480 1482 1484 1485 1487 1487 1487 1488 1489 1490 1490 1491 1492 1493 1493 1493 1493 1493 1493 1493 1493 1493 1493 1492 1492 1492 1491 1490 1490
1477 1472 1471 1471 1470 1469 1468 1469 1471 1473 1474 1475 1475 1476 1478 1480 1482 1483 1484 1485 1486 1487 1487 1488 1488 1489 1489 1490 1491 1491 1491 1491 1491 1491 1491 1490 1490 1490 1490 1490 1490 1489 1488 1488
1469 1469 1469 1469 1469 1469 1469 1470 1472 1473 1473 1475 1476 1477 1478 1479 1481 1482 1483 1483 1484 1485 1486 1487 1487 1487 1488 1489 1489 1489 1489 1489 1488 1488 1488 1488 1487 1487 1487 1487 1487 1486 1485 1485
1467 1469 1469 1469 1469 1469 1470 1470 1471 1472 1473 1474 1475 1476 1478 1479 1480 1481 1481 1482 1482 1483 1484 1484 1485 1485 1486 1486 1487 1487 1487 1487 1486 1486 1485 1485 1485 1485 1485 1484 1483 1483 1482 1482
1467 1468 1469 1469 1469 1470 1470 1470 1471 1472 1473 1474 1475 1476 1477 1478 1479 1480 1481 1481 1481 1481 1481 1482 1483 1483 1484 1484 1484 1484 1484 1484 1484 1484 1483 1483 1483 1482 1482 1482 1481 1480 1479 1479
1466 1468 1469 1468 1469 1469 1470 1470 1471 1471 1472 1473 1474 1475 1476 1477 1478 1479 1479 1479 1479 1480 1480 1481 1481 1482 1482 1482 1482 1482 1482 1481 1481 1481 1480 1480 1480 1479 1479 1478 1478 1477 1476 1475
1465 1467 1467 1468 1468 1468 1469 1469 1470 1471 1472 1472 1473 1474 1475 1476 1477 1477 1477 1477 1478 1478 1479 1479 1479 1480 1480 1480 1480 1479 1479 1478 1478 1478 1477 1477 1477 1476 1476 1475 1475 1473 1473 1472
1463 1464 1465 1466 1466 1466 1467 1468 1470 1470 1471 1472 1473 1473 1474 1475 1475 1475 1476 1476 1476 1476 1477 1477 1477 1477 1477 1477 1477 1476 1476 1476 1476 1475 1475 1474 1474 1474 1473 1472 1471 1470 1469 1469
1460 1461 1462 1464 1464 1465 1466 1467 1468 1469 1470 1471 1471 1472 1473 1473 1473 1474 1474 1474 1474 1474 1475 1475 1475 1475 1475 1474 1474 1473 1473 1473 1473 1473 1472 1472 1472 1471 1470 1469 1468 1467 1466 1466
1458 1459 1460 1462 1463 1463 1464 1465 1466 1468 1469 1470 1470 1471 1471 1472 1472 1472 1472 1472 1472 1472 1473 1473 1472 1472 1472 1471 1471 1470 1470 1469 1469 1470 1470 1469 1468 1468 1467 1467 1466 1465 1464 1462
1457 1459 1460 1461 1461 1462 1463 1464 1465 1466 1467 1468 1468 1468 1469 1470 1470 1471 1470 1470 1470 1470 1470 1470 1470 1469 1469 1469 1468 1468 1468 1467 1467 1467 1467 1466 1466 1465 1464 1463 1463 1462 1461 1460
1457 1458 1459 1460 1461 1461 1463 1463 1464 1464 1465 1466 1467 1467 1467 1468 1468 1468 1468 1468 1468 1468 1468 1468 1467 1467 1467 1466 1465 1465 1465 1465 1465 1464 1464 1464 1463 1462 1461 1461 1460 1459 1458 1457
1457 1458 1458 1459 1459 1460 1460 1461 1462 1462 1462 1463 1464 1464 1465 1466 1466 1466 1466 1466 1466 1466 1465 1465 1465 1465 1464 1464 1463 1463 1463 1463 1462 1462 1461 1461 1460 1460 1459 1458 1458 1457 1455 1454
1456 1457 1458 1458 1458 1458 1458 1459 1459 1459 1460 1461 1461 1462 1463 1463 1463 1464 1464 1464 1464 1463 1463 1462 1462 1462 1462 1461 1461 1461 1461 1460 1460 1459 1459 1459 1458 1458 1457 1456 1455 1454 1453 1452
1456 1456 1456 1456 1456 1457 1457 1457 1457 1457 1458 1458 1459 1460 1460 1460 1461 1461 1461 1461 1461 1461 1460 1460 1459 1459 1459 1459 1458 1458 1458 1458 1457 1457 1456 1456 1456 1455 1454 1453 1452 1451 1450 1449
1455 1455 1455 1455 1455 1455 1455 1455 1455 1456 1457 1457 1457 1458 1458 1458 1458 1458 1459 1459 1458 1458 1458 1458 1458 1457 1457 1457 1456 1456 1456 1455 1455 1454 1454 1453 1453 1452 1451 1450 1450 1449 1447 1446
1454 1454 1454 1454 1454 1453 1453 1454 1454 1454 1455 1455 1455 1455 1456 1456 1456 1456 1456 1456 1456 1456 1456 1456 1456 1456 1455 1455 1455 1454 1454 1453 1453 1452 1451 1451 1451 1450 1449 1448 1447 1446 1445 1443